Weather History for KILN - April, 2014

Change the Weather History Date:

Thursday, April 10, 2014

  Actual Average (KDAY) Record (KDAY)
Temperature  
Mean Temperature 56 °F 50 °F  
Max Temperature 71 °F 60 °F 84 °F (2011)
Min Temperature 41 °F 40 °F 18 °F (1900)
Degree Days  
Heating Degree Days 10 16  
Month to date heating degree days 172  
Since 1 July heating degree days 5211  
Cooling Degree Days 0 0  
Month to date cooling degree days 0  
Year to date cooling degree days 0  
Growing Degree Days 6 (Base 50)    
Moisture  
Dew Point 36 °F    
Average Humidity 48    
Maximum Humidity 70    
Minimum Humidity 31    
Precipitation  
Precipitation 0.00 in 0.13 in 1.45 in (1994)
Month to date precipitation 1.29  
Year to date precipitation 9.58  
Snow  
Snow 0.00 in 0.00 in 3.00 in (1918)
Month to date snowfall 0.4  
Since 1 July snowfall 23.1  
Snow Depth -    
Sea Level Pressure  
Sea Level Pressure 29.98 in    
Wind  
Wind Speed 13 mph (SSW)    
Max Wind Speed 28 mph    
Max Gust Speed 43 mph    
Visibility 10 miles    
Events      
T = Trace of Precipitation, MM = Missing Value Source: NWS Daily Summary

Daily Weather History Graph

Daily Weather History Graph

Search for Another Location

Airport or City:

Trip Planner

Search our weather history database for the weather conditions in past years. The results will help you decide how hot, cold, wet, or windy it might be!

Date:

Astronomy

Apr. 10, 2014 Rise Set
Actual Time 7:05 AM EDT 8:08 PM EDT
Civil Twilight 6:38 AM EDT 8:35 PM EDT
Nautical Twilight 6:05 AM EDT 9:08 PM EDT
Astronomical Twilight 5:31 AM EDT 9:42 PM EDT
Moon 3:52 PM EDT (4/10) 4:26 AM EDT (4/10)
Length of Visible Light 13h 57m
Length of Day
13h 02m
Waxing Gibbous, 79% of the Moon is Illuminated
Apr 10
Waxing Gibbous
Apr 15
Full
Apr 22
Last Quarter
Apr 29
New
May 6
First Quarter

Hourly Weather History & Observations

Time (EDT) Temp. Windchill Dew Point Humidity Pressure Visibility Wind Dir Wind Speed Gust Speed Precip Events Conditions
12:54 AM 44.1 °F 39.5 °F 32.0 °F 63% 30.07 in 10.0 mi South 8.1 mph - N/A   Clear
1:54 AM 43.0 °F 38.2 °F 32.0 °F 65% 30.06 in 10.0 mi South 8.1 mph - N/A   Clear
2:54 AM 43.0 °F 38.8 °F 32.0 °F 65% 30.06 in 10.0 mi SSW 6.9 mph - N/A   Clear
3:54 AM 42.1 °F 38.4 °F 32.0 °F 67% 30.06 in 10.0 mi SSW 5.8 mph - N/A   Clear
4:54 AM 43.0 °F 40.3 °F 32.0 °F 65% 30.06 in 10.0 mi SSW 4.6 mph - N/A   Clear
5:54 AM 41.0 °F 37.1 °F 32.0 °F 70% 30.07 in 10.0 mi South 5.8 mph - N/A   Clear
6:54 AM 41.0 °F 35.2 °F 32.0 °F 70% 30.07 in 10.0 mi South 9.2 mph - N/A   Clear
7:54 AM 44.1 °F 38.6 °F 34.0 °F 68% 30.09 in 10.0 mi South 10.4 mph - N/A   Clear
8:54 AM 48.9 °F - 36.0 °F 61% 30.08 in 10.0 mi SSW 12.7 mph - N/A   Clear
9:54 AM 55.0 °F - 36.0 °F 49% 30.05 in 10.0 mi SSW 20.7 mph 28.8 mph N/A   Clear
10:54 AM 57.9 °F - 37.0 °F 46% 30.04 in 10.0 mi SSW 24.2 mph 32.2 mph N/A   Clear
11:54 AM 63.0 °F - 35.1 °F 35% 30.02 in 10.0 mi SW 26.5 mph 35.7 mph N/A   Clear
12:54 PM 64.0 °F - 37.0 °F 37% 29.99 in 10.0 mi SSW 23.0 mph 31.1 mph N/A   Clear
1:54 PM 68.0 °F - 37.9 °F 33% 29.94 in 10.0 mi SSW 20.7 mph 32.2 mph N/A   Clear
2:54 PM 68.0 °F - 39.0 °F 35% 29.91 in 10.0 mi SSW 25.3 mph 35.7 mph N/A   Clear
3:54 PM 70.0 °F - 37.9 °F 31% 29.86 in 10.0 mi South 27.6 mph 41.4 mph N/A   Clear
4:54 PM 70.0 °F - 37.9 °F 31% 29.84 in 10.0 mi SSW 26.5 mph 42.6 mph N/A   Clear
5:54 PM 69.1 °F - 37.9 °F 32% 29.87 in 10.0 mi SSW 24.2 mph 33.4 mph N/A   Clear
6:54 PM 68.0 °F - 39.0 °F 35% 29.87 in 10.0 mi SSW 19.6 mph 27.6 mph N/A   Clear
7:54 PM 66.0 °F - 39.9 °F 38% 29.89 in 10.0 mi SW 17.3 mph - N/A   Clear
8:54 PM 64.0 °F - 39.9 °F 41% 29.91 in 10.0 mi SSW 13.8 mph - N/A   Clear
9:54 PM 64.0 °F - 39.9 °F 41% 29.93 in 10.0 mi SSW 15.0 mph - N/A   Clear
10:54 PM 63.0 °F - 39.9 °F 43% 29.93 in 10.0 mi SSW 16.1 mph - N/A   Clear
11:54 PM 63.0 °F - 39.9 °F 43% 29.93 in 10.0 mi SW 19.6 mph - N/A   Clear